Tracking 25744 objects as of 24-Jun-2022
HD Live streaming from Space Station
objects crossing your sky now

QUIKSCAT

Track QUIKSCAT now!
10-day predictions
QUIKSCAT is classified as:


NORAD ID: 25789
Int'l Code: 1999-034A
Perigee: 663.2 km
Apogee: 805.0 km
Inclination: 98.5 °
Period: 99.3 minutes
Semi major axis: 7105 km
RCS: 2.9895 m2 (large)
Launch date: June 20, 1999
Source: United States (US)
Launch site: AIR FORCE WESTERN TEST RANGE (AFWTR)

Detailed snapshots of the winds swirling above the world's oceans.
aabbcc
Your satellite tracking list
Your tracking list is empty




NASA's NSSDC Master Catalog

Two Line Element Set (TLE):
1 25789U 99034A   22175.54237114  .00000174  00000-0  54807-4 0  9990
2 25789  98.4759  42.8730 0099777  47.0566 313.8943 14.49593013201773
Source of the keplerian elements: AFSPC